[[{"header":{"parameterUnit":"m.s-1","parameterCategory":1,"la1":30.2991,"la2":30.254,"lo1":-89.0895,"lo2":-89.0444,"dy":0.0017,"dx":0.0017,"nx":28,"ny":28,"refTime":"2024-06-14T21:00:00:Z","depth":0,"parameterNumber":2,"parameterNumberName":"U-component_of_WINDS"},"data":[0,0,0,0,0,0,0,0,0,0,0,0,0,0,0,0,0,0,0,0,0,0,0,0,0,0,0,0,0,0,0,0,0,0,0,0,0,0,0,0,0,0,0,0,0,0,0,0,0,0,0,0,0,0,0,0,0,0,0.9455,0.9455,0,0.9449,0.9449,0.9449,0.944,0.944,0.9439,0.9439,0.9432,0.9432,0.9432,0,0,0,0,0,0,0,0,0,0,0,0,0,0.9454,0.9454,0.9455,0.9455,0.9455,0.9449,0.9449,0.9449,0.944,0.944,0.9439,0.9439,0.9432,0.9432,0.9432,0,0,0,0,0,0,0,0,0,0,0,0,0,0.9452,0.9454,0.9455,0.9449,0.9449,0.9449,0.9449,0.9449,0.944,0.944,0.9439,0.9439,0.9432,0.9432,0.9432,0.9436,0,0,0.9431,0.9431,0,0,0,0,0,0,0,0,0.9452,0.9452,0.945,0.945,0.9449,0.9445,0.9446,0.9445,0.944,0.9443,0.9439,0.9439,0.9436,0.9436,0.9435,0.9436,0.9436,0.9431,0.9431,0.9431,0.9431,0,0,0,0,0,0,0,0.9452,0.9452,0.9453,0.945,0.945,0.9446,0.9446,0.9446,0.9441,0.9443,0.9442,0.9442,0.9436,0.9435,0.9435,0.9435,0.9431,0.9431,0.9431,0.9431,0.9437,0.9437,0,0,0,0,0,0,0.9453,0.9452,0.9453,0.9452,0.945,0.9446,0.9446,0.9447,0.9441,0.944,0.9442,0.9441,0.9436,0.9435,0.9435,0.9438,0.9431,0.9431,0.9431,0.9437,0.9437,0.9437,0,0,0,0,0,0,0.9453,0.9453,0.9453,0.9452,0.9452,0.9447,0.9448,0.9447,0.9446,0.944,0.9439,0.9443,0.9435,0.9435,0.9435,0.9438,0.9431,0.9431,0.9437,0.9437,0.9437,0.9447,0,0,0,0,0,0,0.9453,0.9454,0.9456,0.9452,0.9452,0.9455,0.9448,0.9447,0.9446,0.9445,0.9441,0.944,0.9435,0.9436,0.9435,0.9438,0.9431,0.9436,0.9437,0.9437,0.9446,0.9447,0.9448,0,0,0,0,0,0.9453,0.9459,0.9457,0.9457,0.9455,0.9455,0.9455,0.945,0.9447,0.9448,0.9444,0.944,0.9438,0.9436,0.9435,0.9438,0.9436,0.9437,0.9437,0.9446,0.9447,0.9448,0,0,0,0,0,0,0.9464,0.9459,0.9456,0.9461,0.9458,0.9454,0.9456,0.9452,0.9451,0.945,0.9443,0.9442,0.9443,0.9441,0.9439,0.9441,0.9436,0.9436,0.9443,0.9444,0.9445,0.9446,0.9431,0,0,0,0,0,0.9467,0.9468,0.9463,0.9468,0.9467,0.9462,0.9462,0.9458,0.9455,0.9454,0.945,0.9447,0.9445,0.9444,0.9443,0.9445,0.9443,0.9447,0.9448,0.9449,0.9449,0.9448,0.9449,0.9439,0.9439,0.9439,0,0,0.9473,0.947,0.9471,0.947,0.9468,0.9468,0.9461,0.9462,0.9462,0.9454,0.9454,0.9451,0.9447,0.9448,0.9449,0.9446,0.9451,0.9449,0.945,0.945,0.9449,0.945,0.9451,0.9439,0.9439,0.9439,0,0,0.9483,0.9482,0.9485,0.9483,0.948,0.9476,0.9477,0.9472,0.947,0.947,0.9463,0.9462,0.946,0.9457,0.9455,0.9462,0.9457,0.9461,0.9467,0.9466,0.9467,0.9468,0.9469,0.947,0.9462,0.9462,0.9462,0,0.9491,0.9492,0.9487,0.9488,0.9487,0.948,0.9482,0.9479,0.9476,0.9474,0.9472,0.9467,0.9464,0.9464,0.9465,0.9464,0.9463,0.9462,0.9468,0.9468,0.9469,0.947,0.9471,0.9462,0.9462,0.9462,0.9462,0,0.9501,0.9502,0.9504,0.9501,0.95,0.9501,0.9495,0.9494,0.949,0.9486,0.9485,0.9481,0.9477,0.9477,0.9473,0.9475,0.9473,0.9469,0.9464,0.947,0.9471,0.9472,0.9463,0.9463,0.9463,0.9463,0,0,0.952,0.9512,0.9513,0.951,0.9505,0.9505,0.9505,0.9502,0.9501,0.9498,0.9497,0.9494,0.949,0.9488,0.9483,0.9482,0.9486,0.9478,0.9478,0.9479,0.9487,0.949,0.949,0.9483,0.9483,0.9483,0.9487,0,0.9529,0.953,0.9524,0.9526,0.9525,0.9517,0.9517,0.9513,0.9509,0.9507,0.9501,0.9499,0.9494,0.9493,0.9492,0.9486,0.9488,0.9486,0.9481,0.9481,0.9482,0.9491,0.9494,0.9498,0.9487,0.9487,0.9487,0,0.954,0.9538,0.954,0.9533,0.9532,0.9532,0.9528,0.9526,0.9521,0.9517,0.9514,0.9508,0.9506,0.9501,0.9498,0.9496,0.9494,0.949,0.949,0.9489,0.9484,0.949,0.95,0.95,0.9488,0.9488,0.9488,0,0.9552,0.9549,0.9549,0.9547,0.954,0.954,0.9536,0.9531,0.9528,0.9524,0.9522,0.9517,0.9515,0.9511,0.9503,0.95,0.9499,0.9494,0.9496,0.9496,0.9496,0.9496,0.9505,0.9495,0.9495,0.9495,0.9495,0,0.9563,0.9564,0.9554,0.9555,0.9555,0.9547,0.9548,0.9543,0.9538,0.9536,0.9528,0.9526,0.9517,0.9513,0.9507,0.9504,0.9503,0.9499,0.9498,0.95,0.95,0.9498,0.9497,0.9495,0.9495,0.9495,0.9495,0,0.9576,0.957,0.957,0.9562,0.956,0.956,0.9553,0.9552,0.9547,0.9544,0.9543,0.9534,0.9529,0.9521,0.9514,0.951,0.9508,0.9505,0.951,0.9509,0.951,0.951,0.9518,0.9518,0.9508,0.9508,0.9509,0,0.9584,0.9584,0.9576,0.9575,0.9571,0.9569,0.9566,0.9558,0.9556,0.9549,0.9548,0.9543,0.9538,0.953,0.9523,0.9517,0.9514,0.9517,0.9513,0.9514,0.9513,0.9513,0.9512,0.9518,0.9518,0.9518,0.9518,0,0.9596,0.9593,0.959,0.9585,0.9583,0.9579,0.9574,0.9573,0.9563,0.9561,0.9556,0.9552,0.9544,0.9539,0.9531,0.9526,0.952,0.9519,0.9519,0.9521,0.9524,0.9522,0.9512,0.9519,0.9519,0.9519,0.9519,0.9519,0.9606,0.9606,0.96,0.9596,0.9592,0.9587,0.9586,0.958,0.9576,0.9569,0.9564,0.9559,0.9552,0.9541,0.9536,0.9532,0.9529,0.9529,0.9529,0.9529,0.9529,0.9525,0.953,0.953,0.953,0.953,0.953,0,0.9618,0.9613,0.961,0.9604,0.96,0.9595,0.9589,0.9587,0.9583,0.9577,0.9572,0.9565,0.9559,0.9551,0.9544,0.9541,0.9538,0.9539,0.9539,0.9538,0.9533,0.9533,0.9542,0.9542,0.9542,0.9542,0.9542,0.9542,0.9623,0.9622,0.9617,0.9613,0.9608,0.9604,0.9601,0.9596,0.9591,0.9584,0.9579,0.9573,0.9566,0.9558,0.9551,0.9549,0.9546,0.9548,0.9545,0.954,0.9539,0.9538,0.9538,0.9548,0.9548,0.9551,0.9551,0.9551]},{"header":{"parameterUnit":"m.s-1","parameterCategory":1,"la1":30.2991,"la2":30.254,"lo1":-89.0895,"lo2":-89.0444,"dy":0.0017,"dx":0.0017,"nx":28,"ny":28,"refTime":"2024-06-14T21:00:00:Z","depth":0,"parameterNumber":3,"parameterNumberName":"V-component_of_WINDS"},"data":[0,0,0,0,0,0,0,0,0,0,0,0,0,0,0,0,0,0,0,0,0,0,0,0,0,0,0,0,0,0,0,0,0,0,0,0,0,0,0,0,0,0,0,0,0,0,0,0,0,0,0,0,0,0,0,0,0,0,0.2891,0.2891,0,0.288,0.2879,0.2879,0.2866,0.2865,0.2865,0.2865,0.2853,0.2853,0.2853,0,0,0,0,0,0,0,0,0,0,0,0,0,0.2898,0.2898,0.2891,0.2891,0.289,0.288,0.2879,0.2879,0.2866,0.2865,0.2865,0.2865,0.2853,0.2853,0.2853,0,0,0,0,0,0,0,0,0,0,0,0,0,0.2892,0.2898,0.2891,0.2882,0.2881,0.288,0.2879,0.2879,0.2866,0.2865,0.2865,0.2865,0.2853,0.2853,0.2853,0.2858,0,0,0.2852,0.2852,0,0,0,0,0,0,0,0,0.2892,0.2891,0.2884,0.2883,0.2882,0.2874,0.2878,0.2872,0.2866,0.2872,0.2865,0.2864,0.286,0.2859,0.2858,0.2858,0.2857,0.2852,0.2852,0.2852,0.2852,0,0,0,0,0,0,0,0.2892,0.2892,0.2886,0.2884,0.2882,0.2878,0.2877,0.2877,0.2868,0.2871,0.287,0.2869,0.286,0.2858,0.2858,0.2857,0.2852,0.2852,0.2852,0.2852,0.2858,0.2859,0,0,0,0,0,0,0.2894,0.2892,0.2887,0.2886,0.2886,0.2878,0.2877,0.2877,0.2868,0.2866,0.2869,0.2868,0.2859,0.2858,0.2857,0.2862,0.2852,0.2852,0.2852,0.2858,0.2858,0.2859,0,0,0,0,0,0,0.2895,0.2894,0.2887,0.2889,0.2888,0.2879,0.2878,0.2877,0.2875,0.2866,0.2865,0.287,0.2858,0.2857,0.2858,0.2861,0.2852,0.2852,0.2858,0.2858,0.2859,0.2872,0,0,0,0,0,0,0.2895,0.2894,0.2897,0.2889,0.2888,0.2889,0.2879,0.2877,0.2875,0.2874,0.2866,0.2865,0.2858,0.2858,0.2857,0.2861,0.2852,0.2857,0.2858,0.2858,0.2871,0.2873,0.2874,0,0,0,0,0,0.2895,0.2901,0.2897,0.2897,0.2891,0.2889,0.2888,0.288,0.2875,0.2877,0.2871,0.2865,0.2861,0.2858,0.2857,0.2861,0.2857,0.2858,0.2858,0.2871,0.2873,0.2874,0,0,0,0,0,0,0.2911,0.29,0.2895,0.29,0.2895,0.2887,0.2889,0.2883,0.288,0.2879,0.2869,0.2867,0.2869,0.2865,0.2862,0.2864,0.2858,0.2858,0.2867,0.2869,0.2871,0.2872,0.2851,0,0,0,0,0,0.2914,0.2914,0.2905,0.2909,0.2907,0.2899,0.2897,0.2892,0.2887,0.2885,0.2879,0.2874,0.2871,0.287,0.2867,0.287,0.2868,0.2872,0.2873,0.2875,0.2875,0.2875,0.2877,0.2861,0.2861,0.2861,0,0,0.2922,0.2917,0.2917,0.2912,0.2908,0.2907,0.2897,0.2897,0.2896,0.2885,0.2885,0.288,0.2873,0.2875,0.2875,0.2871,0.2879,0.2875,0.2877,0.2877,0.2876,0.2877,0.2879,0.2861,0.2861,0.2861,0,0,0.2937,0.2933,0.2935,0.2931,0.2924,0.2918,0.2919,0.2911,0.2907,0.2906,0.2897,0.2895,0.2891,0.2887,0.2884,0.2893,0.2887,0.2893,0.2901,0.2901,0.2902,0.2903,0.2905,0.2907,0.2893,0.2893,0.2893,0,0.2948,0.2946,0.2937,0.2937,0.2935,0.2923,0.2925,0.2921,0.2914,0.2913,0.2908,0.2902,0.2897,0.2896,0.2898,0.2897,0.2896,0.2894,0.2902,0.2903,0.2904,0.2907,0.2908,0.2894,0.2894,0.2894,0.2894,0,0.2959,0.2959,0.2961,0.2954,0.2952,0.2953,0.2943,0.2941,0.2935,0.2929,0.2927,0.292,0.2915,0.2914,0.2909,0.2912,0.291,0.2904,0.2898,0.2907,0.2909,0.2909,0.2895,0.2895,0.2895,0.2894,0,0,0.2985,0.2971,0.2973,0.2968,0.2959,0.2958,0.2957,0.2952,0.2951,0.2945,0.2944,0.294,0.2934,0.293,0.2924,0.2923,0.293,0.2917,0.2917,0.2919,0.2932,0.2936,0.2938,0.2925,0.2925,0.2925,0.2932,0,0.2998,0.2997,0.2987,0.2989,0.2987,0.2975,0.2974,0.2968,0.2961,0.2958,0.2951,0.2947,0.294,0.2938,0.2937,0.2929,0.2932,0.2929,0.2923,0.2923,0.2925,0.2939,0.2944,0.2951,0.2933,0.2933,0.2933,0,0.3013,0.3008,0.3009,0.2998,0.2997,0.2996,0.2989,0.2987,0.2979,0.2974,0.2969,0.2961,0.2958,0.2951,0.2947,0.2944,0.2941,0.2937,0.2937,0.2936,0.2929,0.2938,0.2953,0.2954,0.2935,0.2934,0.2934,0,0.303,0.3024,0.3023,0.302,0.3007,0.3007,0.3002,0.2993,0.299,0.2984,0.2981,0.2975,0.2971,0.2966,0.2956,0.2952,0.2952,0.2944,0.2947,0.2947,0.2948,0.2949,0.2963,0.2946,0.2946,0.2946,0.2946,0,0.3045,0.3046,0.3031,0.303,0.303,0.3019,0.3019,0.3012,0.3004,0.3002,0.2991,0.2988,0.2975,0.297,0.2962,0.2959,0.2957,0.2953,0.2951,0.2954,0.2954,0.2952,0.2951,0.2946,0.2946,0.2946,0.2946,0,0.3066,0.3056,0.3054,0.3041,0.3038,0.3039,0.3028,0.3026,0.3018,0.3015,0.3013,0.3,0.2994,0.2983,0.2974,0.2968,0.2967,0.2963,0.297,0.2969,0.2972,0.2971,0.2985,0.2986,0.2969,0.2969,0.2969,0,0.3077,0.3077,0.3064,0.3061,0.3056,0.3052,0.3048,0.3036,0.3032,0.3021,0.3021,0.3014,0.3008,0.2999,0.2988,0.2981,0.2976,0.2982,0.2975,0.2978,0.2976,0.2976,0.2975,0.2983,0.2984,0.2984,0.2984,0,0.3096,0.309,0.3085,0.3078,0.3074,0.3067,0.306,0.3058,0.3044,0.304,0.3034,0.3029,0.3019,0.3012,0.3002,0.2996,0.2987,0.2986,0.2986,0.2989,0.2993,0.299,0.2974,0.2986,0.2986,0.2985,0.2985,0.2985,0.3111,0.311,0.3101,0.3095,0.3088,0.3081,0.3079,0.307,0.3064,0.3055,0.3048,0.3042,0.3031,0.3018,0.3011,0.3005,0.3001,0.3002,0.3002,0.3002,0.3003,0.2994,0.3004,0.3004,0.3003,0.3003,0.3003,0,0.313,0.3122,0.3117,0.3107,0.3102,0.3094,0.3085,0.3082,0.3076,0.3067,0.3061,0.3052,0.3045,0.3033,0.3024,0.3021,0.3017,0.3019,0.3019,0.3018,0.3008,0.3008,0.3023,0.3023,0.3023,0.3023,0.3023,0.3023,0.3139,0.3137,0.3129,0.3122,0.3115,0.3109,0.3104,0.3097,0.309,0.3081,0.3074,0.3066,0.3056,0.3045,0.3037,0.3034,0.3031,0.3034,0.303,0.3021,0.3019,0.3017,0.3018,0.3034,0.3034,0.304,0.304,0.304]}]]